Regional Weather Roundup
Issued by NWS

Home | Current Version | Previous Version | Graphics & Text | Print | Product List | Glossary On
Versions: 1 2 3 4 5 6 7 8 9 10 11 12 13 14 15 16 17 18 19 20 21 22 23 24 25 26 27 28 29 30 31 32 33 34 35 36 37 38 39 40 41 42 43 44 45 46 47 48 49 50
000
ASUS43 KFSD 311102
RWRSD

WEATHER ROUNDUP FOR SOUTH DAKOTA
NATIONAL WEATHER SERVICE SIOUX FALLS SD
600 AM CDT THU JUL 31 2014

NOTE: "FAIR" INDICATES FEW OR NO CLOUDS BELOW 12,000 FEET WITH NO
SIGNIFICANT WEATHER AND/OR OBSTRUCTIONS TO VISIBILITY.


SDZ001>005-009-010-012>017-311200-
NORTHWEST AND NORTH CENTRAL SOUTH DAKOTA

CITY           SKY/WX    TMP DP  RH WIND       PRES   REMARKS
BUFFALO          N/A     59  50  72 NE13      30.10R
FAITH            N/A     57  52  83 NW8       30.12R
MOBRIDGE       CLEAR     61  53  75 E10       30.08R
$$

SDZ012>016-024>037-041>051-057-063-072>074-311200-
SOUTHWEST AND SOUTH CENTRAL SOUTH DAKOTA

CITY           SKY/WX    TMP DP  RH WIND       PRES   REMARKS
RAPID CTY ARPT CLEAR     57  47  69 W7        30.16S
PIERRE         CLEAR     57  54  89 N6        30.06R
CUSTER         CLEAR     49  39  68 W3        30.29S
ELLSWORTH AFB  CLEAR     57  48  73 W6        30.16S
PHILIP         CLEAR     55  51  86 W6        30.10R
PINE RIDGE     CLEAR     48  46  93 CALM      30.17S
WINNER         FAIR      57  53  86 CALM      30.05R
$$

SDZ004>011-016>023-039-040-311200-
NORTHEAST SOUTH DAKOTA

CITY           SKY/WX    TMP DP  RH WIND       PRES   REMARKS
ABERDEEN       PTCLDY    56  54  93 CALM      30.09S
WATERTOWN      CLEAR     54  52  93 CALM      30.09S
SISSETON         N/A     55  53  93 W5        30.06R
$$

SDZ017-020-022-023-036>040-048>070-311200-
SOUTHEAST SOUTH DAKOTA

CITY           SKY/WX    TMP DP  RH WIND       PRES   REMARKS
SIOUX FALLS    PTCLDY    53  52  96 N5        30.09S
HURON          PTCLDY    57  55  93 E5        30.06F
CHAMBERLAIN    CLEAR     63  55  77 SE8       30.05S
MITCHELL       CLOUDY    67  60  78 S5        30.07F
YANKTON        MOCLDY    61  55  82 N3        30.09S
$$

ABBREVIATIONS USED IN REMARKS
   TC - TEMPERATURE IN CELSIUS
  WCI - WIND CHILL INDEX
   HX - HEAT INDEX
  VSB - VISIBILITY



USA.gov is the U.S. government's official web portal to all federal, state and local government web resources and services.